Point Salines, Grenada

5:41 AM AST on July 25, 2017 (GMT -0400)
Point Salines International

Weather History for TGPY - October, 2011

Change the Weather History Date:

Saturday, October 29, 2011

  Actual Average Record
Temperature  
Mean Temperature 80 °F -  
Max Temperature 86 °F 84 °F 91 °F (2010)
Min Temperature 75 °F 75 °F 69 °F (1998)
Cooling Degree Days 16    
Growing Degree Days 30 (Base 50)    
Moisture  
Dew Point 77 °F    
Average Humidity 83    
Maximum Humidity 94    
Minimum Humidity 69    
Precipitation  
Precipitation 0.00 in - - ()
Sea Level Pressure  
Sea Level Pressure 29.88 in    
Wind  
Wind Speed 8 mph ()    
Max Wind Speed 14 mph    
Max Gust Speed -    
Visibility 8.4 miles    
Events      
Averages and records for this station are not official NWS values.
T = Trace of Precipitation, MM = Missing Value Source: Averaged Metar Reports

Daily Weather History Graph

Daily Weather History Graph

Search for Another Location

Airport or City:

Trip Planner

Search our weather history database for the weather conditions in past years. The results will help you decide how hot, cold, wet, or windy it might be!

Date:

Astronomy

Oct. 29, 2011 Rise Set
Actual Time 5:58 AM AST 5:42 PM AST
Civil Twilight 5:37 AM AST 6:04 PM AST
Nautical Twilight 5:12 AM AST 6:29 PM AST
Astronomical Twilight 4:47 AM AST 6:54 PM AST
Moon 8:45 AM AST (10/29) 8:31 PM AST (10/29)
Length of Visible Light 12h 27m
Length of Day
11h 43m
Waxing Crescent, 11% of the Moon is Illuminated
Oct 29
Waxing Crescent
Nov 2
First Quarter
Nov 10
Full
Nov 18
Last Quarter
Nov 25
New

Hourly Weather History & Observations

Time (AST) Temp. Heat Index Dew Point Humidity Pressure Visibility Wind Dir Wind Speed Gust Speed Precip Events Conditions
12:00 AM 80.6 °F 86.2 °F 75.2 °F 84% 29.86 in 6.2 mi ESE 13.8 mph - N/A   Partly Cloudy
1:00 AM 80.6 °F 87.1 °F 77.0 °F 89% 29.86 in 6.2 mi ESE 10.4 mph - N/A   Scattered Clouds
2:00 AM 81 °F - 76 °F 82% 29.85 in 11 mi ESE 11.5 mph - -   Widespread Dust
2:00 AM 80.6 °F 87.1 °F 77.0 °F 89% 29.83 in 6.2 mi ESE 11.5 mph - N/A   Scattered Clouds
3:00 AM 80.6 °F 87.1 °F 77.0 °F 89% 29.83 in 6.2 mi ESE 5.8 mph - N/A   Partly Cloudy
4:00 AM 80.6 °F 86.2 °F 75.2 °F 84% 29.83 in 6.2 mi Variable 2.3 mph - N/A   Partly Cloudy
5:00 AM 79 °F - 75 °F 85% 29.85 in 11 mi 2.3 mph - -   Widespread Dust
5:00 AM 78.8 °F - 75.2 °F 89% 29.83 in 6.2 mi Variable 2.3 mph - N/A   Partly Cloudy
6:00 AM 77.0 °F - 75.2 °F 94% 29.86 in 6.2 mi Variable 2.3 mph - N/A   Partly Cloudy
7:00 AM 80.6 °F 87.1 °F 77.0 °F 89% 29.89 in 6.2 mi SE 5.8 mph - N/A   Partly Cloudy
8:00 AM 83 °F - 78 °F 79% 29.92 in 14 mi SE 8.1 mph - -   Widespread Dust
8:00 AM 82.4 °F 90.9 °F 77.0 °F 84% 29.92 in 6.2 mi SE 8.1 mph - N/A   Scattered Clouds
9:00 AM 86.0 °F 96.9 °F 77.0 °F 74% 29.92 in 6.2 mi SE 11.5 mph - N/A   Partly Cloudy
10:00 AM 86.0 °F 99.3 °F 78.8 °F 79% 29.95 in 6.2 mi SE 12.7 mph - N/A   Scattered Clouds
11:00 AM 86 °F - 77 °F 69% 29.94 in 17 mi SE 11.5 mph - -   Partly Cloudy
11:00 AM 86.0 °F 96.9 °F 77.0 °F 74% 29.95 in 6.2 mi SE 11.5 mph - N/A   Mostly Cloudy
12:00 PM 86.0 °F 99.3 °F 78.8 °F 79% 29.92 in 6.2 mi SSE 11.5 mph - N/A   Scattered Clouds
1:00 PM 86.0 °F 96.9 °F 77.0 °F 74% 29.89 in 6.2 mi SSE 13.8 mph - N/A   Scattered Clouds
2:00 PM 86 °F - 79 °F 73% 29.88 in 16 mi SE 10.4 mph - -   Partly Cloudy
2:00 PM 86.0 °F 99.3 °F 78.8 °F 79% 29.86 in 6.2 mi SE 10.4 mph - N/A   Scattered Clouds
3:00 PM 86.0 °F 99.3 °F 78.8 °F 79% 29.86 in 6.2 mi SE 9.2 mph - N/A   Mostly Cloudy
4:00 PM 84.2 °F 96.1 °F 78.8 °F 84% 29.86 in 6.2 mi ESE 10.4 mph - N/A   Mostly Cloudy
5:00 PM 83 °F - 76 °F 74% 29.88 in 17 mi ESE 9.2 mph - -   Scattered Clouds
5:00 PM 82.4 °F 90.9 °F 77.0 °F 84% 29.86 in 6.2 mi ESE 9.2 mph - N/A   Mostly Cloudy
6:00 PM 82.4 °F 90.9 °F 77.0 °F 84% 29.86 in 6.2 mi ESE 5.8 mph - N/A   Mostly Cloudy
7:00 PM 80.6 °F 87.1 °F 77.0 °F 89% 29.89 in 6.2 mi ESE 5.8 mph - N/A   Mostly Cloudy
8:00 PM 80 °F - 77 °F 87% 29.90 in 17 mi East 5.8 mph - -   Scattered Clouds
8:00 PM 80.6 °F 87.1 °F 77.0 °F 89% 29.89 in 6.2 mi East 5.8 mph - N/A   Mostly Cloudy
9:00 PM 78.8 °F - 77.0 °F 94% 29.89 in 6.2 mi East 4.6 mph - N/A   Mostly Cloudy
10:00 PM 78.8 °F - 77.0 °F 94% 29.92 in 6.2 mi East 5.8 mph - N/A   Mostly Cloudy
11:00 PM 80 °F - 76 °F 85% 29.92 in 17 mi ESE 4.6 mph - -   Scattered Clouds
11:00 PM 78.8 °F - 75.2 °F 89% 29.92 in 6.2 mi ESE 4.6 mph - N/A   Mostly Cloudy